(50750) = 1993 TT36 = 1998 XC54 = 2000 EU171 = 2002 RN107

Discovered at Socorro on 2000-03-05 by LINEAR.

Orbit

Orbit type: Main Belt

Note: WebGL enabled browser required.

epoch2024-03-31.0
epoch JD2460400.5
perihelion date2023-01-21.09225
perihelion JD2459965.59225
argument of perihelion (°)270.97806
ascending node (°)58.09543
inclination (°)13.08284
eccentricity0.2158128
perihelion distance (AU)2.0505234
Tisserand w.r.t. Jupiter3.3
ΔV w.r.t. Earth (km/sec)9.8
semimajor axis (AU)2.6148392
mean anomaly (°)101.37562
mean daily motion (°/day)0.23309680
aphelion distance (AU)3.179
period (years)4.23
P-vector [x]0.83579547
P-vector [y]-0.36891735
P-vector [z]-0.40662749
Q-vector [x]0.51431430
Q-vector [y]0.78528931
Q-vector [z]0.34467594
absolute magnitude14.38
phase slope0.15
uncertainty0
referenceMPEC 2024-F74
observations used1970
oppositions20
arc length (days)11115
first opposition used1993
last opposition used2024
residual rms (arc-secs)0.63
perturbers coarse indicatorM-v
perturbers precise indicator003Ek
first observation date used1993-10-15.0
last observation date used2024-03-21.0
computer nameMPCLINUX
JD of orbit computation2456966.760940
perihelion JD uncertainty (days)4.6578E-05
argument of perihelion uncertainty (°)2.1270E-05
ascending node uncertainty (°)1.6964E-05
inclination uncertainty (°)4.8814E-06
eccentricity uncertainty 3.6470E-08
perihelion distance uncertainty (AU)9.9965E-08
Minimum Orbit Intersection Distances (in AU)
for orbit epoch: 2460400.5, reference: E2024-GB3
Mercury1.64105
Venus1.33904
Earth1.08978
Mars0.74414
Jupiter2.31567
Saturn6.11143
Uranus15.3596
Neptune27.1791

Observations

2002 total observations over interval: 1993 10 13.23351 – 2024 03 21.139595
These data are available for download (format description).

Date (UT) J2000 RA J2000 Dec Magn Location Ref
1993 10 13.23351 00 54 51.88 -12 42 47.1 17.2   675 – Palomar Mountain MPC 23182
1993 10 13.26910 00 54 49.61 -12 42 40.6   675 – Palomar Mountain MPC 23182
1993 10 15.17777 00 52 56.95 -12 36 17.4 18.0   675 – Palomar Mountain MPC 23182
1993 10 15.22240 00 52 54.29 -12 36 08.1   675 – Palomar Mountain MPC 23182
1998 12 14.47522 07 17 20.90 +34 41 56.9 19.0   704 – Lincoln Laboratory ETS, New Mexico MPS 3434
1998 12 14.49704 07 17 19.64 +34 42 05.7 19.0   704 – Lincoln Laboratory ETS, New Mexico MPS 3434
1998 12 14.51887 07 17 18.37 +34 42 15.0 19.3   704 – Lincoln Laboratory ETS, New Mexico MPS 3434
1998 12 17.41760 07 14 29.65 +35 00 14.7 18.8   704 – Lincoln Laboratory ETS, New Mexico MPS 3434
1998 12 17.44033 07 14 28.34 +35 00 24.1 18.7   704 – Lincoln Laboratory ETS, New Mexico MPS 3434
1998 12 17.46300 07 14 26.89 +35 00 32.7 19.3   704 – Lincoln Laboratory ETS, New Mexico MPS 3434
1998 12 17.48576 07 14 25.45 +35 00 41.2 19.0   704 – Lincoln Laboratory ETS, New Mexico MPS 3434
1998 12 17.50901 07 14 24.00 +35 00 49.9 18.9   704 – Lincoln Laboratory ETS, New Mexico MPS 3434
1999 01 19.09935 06 37 45.61 +37 02 00.8 18.1   704 – Lincoln Laboratory ETS, New Mexico MPS 60799
1999 01 19.12137 06 37 44.11 +37 02 05.6 17.7   704 – Lincoln Laboratory ETS, New Mexico MPS 60799
1999 01 19.16527 06 37 41.11 +37 02 06.3 17.5   704 – Lincoln Laboratory ETS, New Mexico MPS 60799
1999 01 19.18724 06 37 39.42 +37 02 09.0 18.1   704 – Lincoln Laboratory ETS, New Mexico MPS 60799
2000 03 05.32388 12 08 13.20 +18 14 39.0 18.5   704 – Lincoln Laboratory ETS, New Mexico MPS 12536
2000 03 05.33869 12 08 12.45 +18 14 43.6 18.6   704 – Lincoln Laboratory ETS, New Mexico MPS 12536
2000 03 05.35253 12 08 11.79 +18 14 48.4 18.7   704 – Lincoln Laboratory ETS, New Mexico MPS 12536
2000 03 05.36636 12 08 11.01 +18 14 53.6 18.9   704 – Lincoln Laboratory ETS, New Mexico MPS 12536
2000 03 12.40652 12 01 59.44 +18 52 21.6 18.5   704 – Lincoln Laboratory ETS, New Mexico MPS 12536
2000 03 12.44500 12 01 57.28 +18 52 33.6 18.5   704 – Lincoln Laboratory ETS, New Mexico MPS 12536
2000 03 12.45768 12 01 56.58 +18 52 36.9 18.9   704 – Lincoln Laboratory ETS, New Mexico MPS 12536
2000 04 28.15479 11 26 47.90 +19 21 56.1 18.8 R 699 – Lowell Observatory-LONEOS MPS 61021
2000 04 28.17382 11 26 47.35 +19 21 52.9   699 – Lowell Observatory-LONEOS MPS 61021
2000 04 28.19288 11 26 47.00 +19 21 48.0   699 – Lowell Observatory-LONEOS MPS 61021
2000 04 28.21188 11 26 46.60 +19 21 43.3   699 – Lowell Observatory-LONEOS MPS 61021
2002 09 05.41932 05 30 05.56 +23 33 43.1 19.6   704 – Lincoln Laboratory ETS, New Mexico MPS 61734
2002 09 05.43375 05 30 06.57 +23 33 47.3 19.9   704 – Lincoln Laboratory ETS, New Mexico MPS 61734
2002 09 05.44802 05 30 07.56 +23 33 51.0 20.3   704 – Lincoln Laboratory ETS, New Mexico MPS 61734
2002 09 07.41203 05 32 22.15 +23 42 18.8 19.3   704 – Lincoln Laboratory ETS, New Mexico MPS 61734
2002 09 07.42650 05 32 23.15 +23 42 22.1 19.8   704 – Lincoln Laboratory ETS, New Mexico MPS 61734
2002 09 07.44091 05 32 24.09 +23 42 26.3 20.4   704 – Lincoln Laboratory ETS, New Mexico MPS 61734
2002 09 07.45537 05 32 25.00 +23 42 29.7 19.7   704 – Lincoln Laboratory ETS, New Mexico MPS 61734
2002 10 29.45141 06 00 47.32 +27 44 50.5 18.9   704 – Lincoln Laboratory ETS, New Mexico MPS 65615
2002 10 29.46866 06 00 47.10 +27 44 55.8 18.9   704 – Lincoln Laboratory ETS, New Mexico MPS 65615
2002 10 29.48585 06 00 46.91 +27 45 00.9 18.8   704 – Lincoln Laboratory ETS, New Mexico MPS 65615
2002 11 12.33111 05 55 01.31 +29 01 33.6 18.9   704 – Lincoln Laboratory ETS, New Mexico MPS 65615
2002 11 12.34837 05 55 00.61 +29 01 39.2 19.2   704 – Lincoln Laboratory ETS, New Mexico MPS 65615
2002 11 12.36568 05 54 59.88 +29 01 45.7 19.2   704 – Lincoln Laboratory ETS, New Mexico MPS 65615
2002 11 12.38313 05 54 59.22 +29 01 51.0 19.0   704 – Lincoln Laboratory ETS, New Mexico MPS 65615
2002 11 12.40052 05 54 58.48 +29 01 57.2 19.2   704 – Lincoln Laboratory ETS, New Mexico MPS 65615
2002 12 06.29863 05 32 08.38 +30 58 17.7 18.4   704 – Lincoln Laboratory ETS, New Mexico MPS 69359
2002 12 06.31405 05 32 07.26 +30 58 21.1 18.5   704 – Lincoln Laboratory ETS, New Mexico MPS 69359
2002 12 06.32951 05 32 06.13 +30 58 24.7 19.3   704 – Lincoln Laboratory ETS, New Mexico MPS 69359
2002 12 06.34496 05 32 05.02 +30 58 28.3 18.6   704 – Lincoln Laboratory ETS, New Mexico MPS 69359
2002 12 11.30143 05 26 09.72 +31 15 42.0 18.7   704 – Lincoln Laboratory ETS, New Mexico MPS 69359
2002 12 11.31722 05 26 08.60 +31 15 44.4 18.8   704 – Lincoln Laboratory ETS, New Mexico MPS 69359
2002 12 11.33275 05 26 07.41 +31 15 47.3 18.8   704 – Lincoln Laboratory ETS, New Mexico MPS 69359
2002 12 11.34827 05 26 06.27 +31 15 50.1 18.9   704 – Lincoln Laboratory ETS, New Mexico MPS 69359
2002 12 11.36399 05 26 05.08 +31 15 53.3 18.8   704 – Lincoln Laboratory ETS, New Mexico MPS 69359
2002 12 15.28476 05 21 22.04 +31 27 15.6 18.1   704 – Lincoln Laboratory ETS, New Mexico MPS 69359
2002 12 15.29950 05 21 21.00 +31 27 17.2 18.2   704 – Lincoln Laboratory ETS, New Mexico MPS 69359
2002 12 15.31435 05 21 19.89 +31 27 19.4 18.0   704 – Lincoln Laboratory ETS, New Mexico MPS 69359
2002 12 15.32911 05 21 18.78 +31 27 22.0 18.1   704 – Lincoln Laboratory ETS, New Mexico MPS 69359
2002 12 15.34382 05 21 17.71 +31 27 24.0 18.2   704 – Lincoln Laboratory ETS, New Mexico MPS 69359
2002 12 29.23681 05 05 39.25 +31 51 57.5 18.1   704 – Lincoln Laboratory ETS, New Mexico MPS 70980
2002 12 29.25211 05 05 38.31 +31 51 58.0 18.7   704 – Lincoln Laboratory ETS, New Mexico MPS 70980
2002 12 29.26738 05 05 37.29 +31 51 58.1 19.0   704 – Lincoln Laboratory ETS, New Mexico MPS 70980
2002 12 29.29716 05 05 35.48 +31 52 00.3 18.7   704 – Lincoln Laboratory ETS, New Mexico MPS 70980
2003 01 04.24258 04 59 59.54 +31 56 02.9 18.6   704 – Lincoln Laboratory ETS, New Mexico MPS 70980
2003 01 04.25896 04 59 58.64 +31 56 03.2 18.5   704 – Lincoln Laboratory ETS, New Mexico MPS 70980
2003 01 04.27517 04 59 57.79 +31 56 03.7 18.8   704 – Lincoln Laboratory ETS, New Mexico MPS 70980
2003 01 04.29171 04 59 56.90 +31 56 04.0 18.7   704 – Lincoln Laboratory ETS, New Mexico MPS 70980
2003 12 28.42075 11 27 58.39 +20 18 12.6 19.3 C 704 – Lincoln Laboratory ETS, New Mexico MPS 293787
2003 12 28.45900 11 27 58.88 +20 18 19.1 19.5 C 704 – Lincoln Laboratory ETS, New Mexico MPS 293787
2003 12 28.47646 11 27 59.14 +20 18 22.9 19.9 C 704 – Lincoln Laboratory ETS, New Mexico MPS 293787
2003 12 28.49534 11 27 59.49 +20 18 26.7 19.3 C 704 – Lincoln Laboratory ETS, New Mexico MPS 293787
2004 01 28.34414 11 25 25.34 +23 04 16.2 19.1 V 703 – Catalina Sky Survey MPS 98441
2004 01 28.35907 11 25 25.00 +23 04 23.3 19.9 V 703 – Catalina Sky Survey MPS 98441
2004 01 28.37405 11 25 24.54 +23 04 27.9 20.2 V 703 – Catalina Sky Survey MPS 98441
2004 01 28.38904 11 25 24.01 +23 04 33.6 19.6 V 703 – Catalina Sky Survey MPS 98441
2004 01 30.34272 11 24 28.31 +23 18 00.1 18.7   704 – Lincoln Laboratory ETS, New Mexico MPS 98441
2004 01 30.35497 11 24 27.91 +23 18 05.6 19.2   704 – Lincoln Laboratory ETS, New Mexico MPS 98441
2004 01 30.36761 11 24 27.52 +23 18 10.4 19.3   704 – Lincoln Laboratory ETS, New Mexico MPS 98441
2004 01 30.38026 11 24 27.14 +23 18 15.8 19.5   704 – Lincoln Laboratory ETS, New Mexico MPS 98441
2004 02 12.50536 11 16 02.45 +24 49 19.9 18.6   644 – Palomar Mountain/NEAT MPS 99688
2004 02 12.52850 11 16 01.37 +24 49 29.2 18.7   644 – Palomar Mountain/NEAT MPS 99688
2004 02 12.54943 11 16 00.37 +24 49 37.3 18.9   644 – Palomar Mountain/NEAT MPS 99688
2004 02 15.27741 11 13 50.87 +25 07 52.0 19.3   704 – Lincoln Laboratory ETS, New Mexico MPS 99688
2004 02 15.28900 11 13 50.32 +25 07 56.8 20.2   704 – Lincoln Laboratory ETS, New Mexico MPS 99688
2004 02 15.30066 11 13 49.69 +25 08 00.8 20.0   704 – Lincoln Laboratory ETS, New Mexico MPS 99688
2004 02 15.31236 11 13 49.13 +25 08 06.2 20.2   704 – Lincoln Laboratory ETS, New Mexico MPS 99688
2004 03 09.25360 10 52 45.16 +27 04 48.1 18.4   644 – Palomar Mountain/NEAT MPS 100938
2004 03 09.27956 10 52 43.66 +27 04 52.8 18.3   644 – Palomar Mountain/NEAT MPS 100938
